Chillicothe, MO

6:10 AM CDT on October 14, 2019 (GMT -0500)
Chillicothe

Weather History for KCDJ - August, 2019

Change the Weather History Date:

Thursday, August 29, 2019

  Actual Average (KIRK) Record (KIRK)
Temperature  
Mean Temperature 76 °F -  
Max Temperature 90 °F 84 °F 105 °F (1984)
Min Temperature 64 °F 60 °F 42 °F (1986)
Cooling Degree Days 12    
Growing Degree Days 26 (Base 50)    
Moisture  
Dew Point 67 °F    
Average Humidity 80    
Maximum Humidity 96    
Minimum Humidity 63    
Precipitation  
Precipitation 1.33 in - - ()
Sea Level Pressure  
Sea Level Pressure 29.96 in    
Wind  
Wind Speed 5 mph (SSW)    
Max Wind Speed 14 mph    
Max Gust Speed 36 mph    
Averages and records for this station are not official NWS values.
T = Trace of Precipitation, MM = Missing Value Source: NWS Daily Summary

Daily Weather History Graph

Daily Weather History Graph

Search for Another Location

Airport or City:

Astronomy

Aug. 29, 2019 Rise Set
Actual Time 6:39 AM CDT 7:50 PM CDT
Civil Twilight 6:11 AM CDT 8:18 PM CDT
Nautical Twilight 5:38 AM CDT 8:51 PM CDT
Astronomical Twilight 5:03 AM CDT 9:26 PM CDT
Moon 5:25 AM CDT (8/29) 7:47 PM CDT (8/29)
Length of Visible Light 14h 06m
Length of Day
13h 11m
Waning Crescent, 1% of the Moon is Illuminated
Aug 29
Waning Crescent
Aug 30
New
Sep 5
First Quarter
Sep 13
Full
Sep 21
Last Quarter

Hourly Weather History & Observations

Time (CDT) Temp. Heat Index Dew Point Humidity Pressure Visibility Wind Dir Wind Speed Gust Speed Precip Events Conditions
12:52 AM 64.0 °F - 63.0 °F 96% 30.00 in - Calm Calm - N/A   Unknown
1:52 AM 64.9 °F - 63.0 °F 93% 29.99 in - SSW 3.5 mph - N/A   Unknown
3:52 AM 64.9 °F - 62.1 °F 90% 29.98 in - South 4.6 mph - N/A   Unknown
4:52 AM 64.9 °F - 61.0 °F 87% 29.97 in - Calm Calm - N/A   Unknown
5:52 AM 64.9 °F - 61.0 °F 87% 29.98 in - South 4.6 mph - N/A   Unknown
6:52 AM 64.9 °F - 61.0 °F 87% 29.97 in - South 5.8 mph - N/A   Unknown
7:52 AM 66.9 °F - 62.1 °F 84% 29.98 in - South 6.9 mph - N/A   Unknown
8:52 AM 68.0 °F - 64.0 °F 87% 29.97 in - South 6.9 mph - N/A   Unknown
9:52 AM 71.1 °F - 66.9 °F 87% 29.97 in - South 6.9 mph - N/A   Unknown
10:52 AM 80.1 °F 83.8 °F 72.0 °F 76% 29.94 in - SSW 6.9 mph - N/A   Unknown
11:52 AM 84.0 °F 90.2 °F 73.0 °F 69% 29.94 in - SW 8.1 mph - N/A   Unknown
12:52 PM 87.1 °F 96.3 °F 75.0 °F 67% 29.94 in - Variable 5.8 mph 18.4 mph N/A   Unknown
1:52 PM 87.1 °F 96.3 °F 75.0 °F 67% 29.93 in - Variable 4.6 mph - N/A   Unknown
2:52 PM 89.1 °F 99.1 °F 75.0 °F 63% 29.92 in - SW 6.9 mph - N/A   Unknown
3:52 PM 89.1 °F 100.2 °F 75.9 °F 65% 29.87 in - SSW 12.7 mph 21.9 mph N/A   Unknown
4:52 PM 89.1 °F 100.2 °F 75.9 °F 65% 29.86 in - SSW 8.1 mph 20.7 mph N/A   Unknown
5:40 PM 73.9 °F - 66.0 °F 76% 29.95 in - ESE 13.8 mph 26.5 mph N/A   Unknown
5:52 PM 73.9 °F - 63.0 °F 68% 29.95 in - East 13.8 mph 35.7 mph N/A   Unknown
6:52 PM 68.0 °F - 60.1 °F 76% 30.00 in - NNW 10.4 mph 35.7 mph 0.27 in   Unknown
7:52 PM 66.9 °F - 64.0 °F 90% 29.96 in - NW 4.6 mph - 0.88 in   Unknown
8:52 PM 69.1 °F - 64.9 °F 87% 29.96 in - Variable 4.6 mph 23.0 mph 0.13 in   Unknown
9:52 PM 71.1 °F - 64.0 °F 78% 29.98 in - West 5.8 mph 23.0 mph 0.05 in   Unknown
10:52 PM 69.1 °F - 64.9 °F 87% 30.02 in - Variable 3.5 mph - N/A   Unknown
11:52 PM 66.9 °F - 64.9 °F 93% 30.01 in - Variable 3.5 mph - N/A   Unknown